Zurück zum Katalog

CENTISPACE-2 S10

AktivNavigationLEO
NORAD 68359·PAYLOAD·🇨🇳 China

Gestartet Mar 22, 2026 von Yellow Sea Launch Area

Loading…

Nächste Überflüge (nächste 24 Stunden)

TLE

AktuellSource: Space-Track

Epoche: Sep 13, 2026, 18:47 UTC

1 68359U 26060K   26256.78295173  .00000003  00000-0  64562-4 0  9998
2 68359  54.9802  50.3375 0007868 280.4172  79.5919 14.28446644 25591

Verfolge CENTISPACE-2 S10 in Echtzeit mit AllMySat

Download on the App Store